Time,TemperatureF,DewpointF,PressureIn,WindDirection,WindDirectionDegrees,WindSpeedMPH,WindSpeedGustMPH,Humidity,HourlyPrecipIn,Conditions,Clouds,dailyrainin,SolarRadiationWatts/m^2,SoftwareType,DateUTC
2013-02-01 00:04:00,51.3,45.0,30.11,NE,40,4.0,6.0,79,0.00,,,0.00,0.0,meteohub,2013-02-01 08:04:00,
2013-02-01 00:09:00,51.3,45.0,30.11,NE,42,3.0,6.0,79,0.00,,,0.00,0.0,meteohub,2013-02-01 08:09:00,
2013-02-01 00:14:00,51.3,45.0,30.11,NNE,24,3.0,6.0,79,0.00,,,0.00,0.0,meteohub,2013-02-01 08:14:00,
2013-02-01 00:19:00,51.3,45.0,30.11,ENE,58,5.0,7.0,79,0.00,,,0.00,0.0,meteohub,2013-02-01 08:19:00,
2013-02-01 00:24:00,51.3,45.0,30.11,NNE,28,4.0,7.0,79,0.00,,,0.00,0.0,meteohub,2013-02-01 08:24:00,
2013-02-01 00:29:00,51.4,45.1,30.11,NE,40,4.0,7.0,79,0.00,,,0.00,0.0,meteohub,2013-02-01 08:29:00,
2013-02-01 00:34:00,51.4,45.1,30.11,NNE,22,3.0,6.0,79,0.00,,,0.00,0.0,meteohub,2013-02-01 08:34:00,
2013-02-01 00:39:00,51.8,45.1,30.11,NNE,32,5.0,6.0,78,0.00,,,0.00,0.0,meteohub,2013-02-01 08:39:00,
2013-02-01 00:44:00,52.2,45.1,30.11,NE,44,4.0,7.0,77,0.00,,,0.00,0.0,meteohub,2013-02-01 08:44:00,
2013-02-01 00:49:00,52.3,45.0,30.10,ENE,57,3.0,7.0,76,0.00,,,0.00,0.0,meteohub,2013-02-01 08:49:00,
2013-02-01 00:54:00,52.5,45.1,30.11,NNE,32,3.0,7.0,76,0.00,,,0.00,0.0,meteohub,2013-02-01 08:54:00,
2013-02-01 00:59:00,52.3,45.3,30.11,NE,42,4.0,7.0,77,0.00,,,0.00,0.0,meteohub,2013-02-01 08:59:00,
2013-02-01 01:04:00,52.0,45.0,30.10,North,0,5.0,7.0,77,0.00,,,0.00,0.0,meteohub,2013-02-01 09:04:00,
2013-02-01 01:09:00,51.8,45.1,30.11,NE,44,3.0,7.0,78,0.00,,,0.00,0.0,meteohub,2013-02-01 09:09:00,
2013-02-01 01:14:00,51.4,45.1,30.11,NE,40,3.0,6.0,79,0.00,,,0.00,0.0,meteohub,2013-02-01 09:14:00,
2013-02-01 01:19:00,51.3,45.3,30.10,NE,44,3.0,6.0,80,0.00,,,0.00,0.0,meteohub,2013-02-01 09:19:00,
2013-02-01 01:24:00,50.7,44.8,30.10,ESE,105,2.0,6.0,80,0.00,,,0.00,0.0,meteohub,2013-02-01 09:24:00,
2013-02-01 01:29:00,50.0,44.8,30.10,East,84,2.0,6.0,82,0.00,,,0.00,0.0,meteohub,2013-02-01 09:29:00,
2013-02-01 01:34:00,49.6,44.8,30.11,East,80,2.0,6.0,83,0.00,,,0.00,0.0,meteohub,2013-02-01 09:34:00,
2013-02-01 01:39:00,49.3,44.6,30.11,East,88,2.0,3.0,84,0.00,,,0.00,0.0,meteohub,2013-02-01 09:39:00,
2013-02-01 01:44:00,49.1,44.4,30.11,East,88,2.0,3.0,84,0.00,,,0.00,0.0,meteohub,2013-02-01 09:44:00,
2013-02-01 01:49:00,48.9,44.6,30.11,East,83,2.0,3.0,85,0.00,,,0.00,0.0,meteohub,2013-02-01 09:49:00,
2013-02-01 01:54:00,48.9,44.6,30.11,East,92,2.0,3.0,85,0.00,,,0.00,0.0,meteohub,2013-02-01 09:54:00,
2013-02-01 01:59:00,49.5,45.1,30.11,ENE,62,4.0,4.0,85,0.00,,,0.00,0.0,meteohub,2013-02-01 09:59:00,
2013-02-01 02:04:00,49.6,45.0,30.11,ENE,69,5.0,5.0,84,0.00,,,0.00,0.0,meteohub,2013-02-01 10:04:00,
2013-02-01 02:09:00,50.0,45.3,30.11,ENE,66,4.0,7.0,84,0.00,,,0.00,0.0,meteohub,2013-02-01 10:09:00,
2013-02-01 02:14:00,50.2,45.1,30.11,ENE,57,4.0,7.0,83,0.00,,,0.00,0.0,meteohub,2013-02-01 10:14:00,
2013-02-01 02:19:00,50.2,45.1,30.11,East,90,5.0,5.0,83,0.00,,,0.00,0.0,meteohub,2013-02-01 10:19:00,
2013-02-01 02:24:00,50.4,45.1,30.11,ENE,66,4.0,6.0,82,0.00,,,0.00,0.0,meteohub,2013-02-01 10:24:00,
2013-02-01 02:29:00,50.2,45.0,30.11,ENE,75,2.0,6.0,82,0.00,,,0.00,0.0,meteohub,2013-02-01 10:29:00,
2013-02-01 02:34:00,50.0,44.8,30.11,ENE,69,3.0,6.0,82,0.00,,,0.00,0.0,meteohub,2013-02-01 10:34:00,
2013-02-01 02:39:00,50.0,44.8,30.11,NE,50,4.0,7.0,82,0.00,,,0.00,0.0,meteohub,2013-02-01 10:39:00,
2013-02-01 02:44:00,49.8,44.6,30.11,NE,46,3.0,7.0,82,0.00,,,0.00,0.0,meteohub,2013-02-01 10:44:00,
2013-02-01 02:49:00,50.0,44.8,30.11,NE,52,5.0,7.0,82,0.00,,,0.00,0.0,meteohub,2013-02-01 10:49:00,
2013-02-01 02:54:00,50.0,44.8,30.11,NE,53,4.0,7.0,82,0.00,,,0.00,0.0,meteohub,2013-02-01 10:54:00,
2013-02-01 02:59:00,50.0,44.8,30.11,ENE,60,3.0,7.0,82,0.00,,,0.00,0.0,meteohub,2013-02-01 10:59:00,
2013-02-01 03:04:00,49.8,44.6,30.11,NE,51,5.0,7.0,82,0.00,,,0.00,0.0,meteohub,2013-02-01 11:04:00,
2013-02-01 03:09:00,49.8,44.8,30.11,NE,50,4.0,7.0,83,0.00,,,0.00,0.0,meteohub,2013-02-01 11:09:00,
2013-02-01 03:14:00,49.6,44.8,30.11,ENE,61,5.0,7.0,83,0.00,,,0.00,0.0,meteohub,2013-02-01 11:14:00,
2013-02-01 03:20:00,49.6,44.8,30.11,NE,53,7.0,7.0,83,0.00,,,0.00,0.0,meteohub,2013-02-01 11:20:00,
2013-02-01 03:25:00,49.6,44.8,30.11,NE,44,6.0,7.0,83,0.00,,,0.00,0.0,meteohub,2013-02-01 11:25:00,
2013-02-01 03:30:00,49.5,44.6,30.11,NE,48,5.0,7.0,83,0.00,,,0.00,0.0,meteohub,2013-02-01 11:30:00,
2013-02-01 03:35:00,49.5,44.8,30.11,ENE,57,5.0,7.0,84,0.00,,,0.00,0.0,meteohub,2013-02-01 11:35:00,
2013-02-01 03:40:00,49.5,44.8,30.11,ENE,77,4.0,7.0,84,0.00,,,0.00,0.0,meteohub,2013-02-01 11:40:00,
2013-02-01 03:45:00,49.5,44.8,30.11,NE,50,3.0,7.0,84,0.00,,,0.00,0.0,meteohub,2013-02-01 11:45:00,
2013-02-01 03:50:00,49.5,44.8,30.11,ENE,62,6.0,7.0,84,0.00,,,0.00,0.0,meteohub,2013-02-01 11:50:00,
2013-02-01 03:55:00,49.5,44.8,30.11,ENE,63,5.0,7.0,84,0.00,,,0.00,0.0,meteohub,2013-02-01 11:55:00,
2013-02-01 04:00:00,49.3,45.0,30.11,NE,36,4.0,7.0,85,0.00,,,0.00,0.0,meteohub,2013-02-01 12:00:00,
2013-02-01 04:05:00,49.3,45.0,30.11,NNE,31,5.0,7.0,85,0.00,,,0.00,0.0,meteohub,2013-02-01 12:05:00,
2013-02-01 04:10:00,49.1,44.8,30.11,ENE,72,5.0,7.0,85,0.00,,,0.00,0.0,meteohub,2013-02-01 12:10:00,
2013-02-01 04:15:00,48.9,44.6,30.11,ENE,66,5.0,7.0,85,0.00,,,0.00,0.0,meteohub,2013-02-01 12:15:00,
2013-02-01 04:20:00,48.9,44.6,30.11,ENE,69,6.0,10.0,85,0.00,,,0.00,0.0,meteohub,2013-02-01 12:20:00,
2013-02-01 04:25:00,48.9,44.6,30.11,ENE,61,6.0,10.0,85,0.00,,,0.00,0.0,meteohub,2013-02-01 12:25:00,
2013-02-01 04:30:00,48.9,44.6,30.11,ENE,61,6.0,10.0,85,0.00,,,0.00,0.0,meteohub,2013-02-01 12:30:00,
2013-02-01 04:35:00,48.9,44.6,30.11,NE,40,6.0,7.0,85,0.00,,,0.00,0.0,meteohub,2013-02-01 12:35:00,
2013-02-01 04:40:00,48.9,45.0,30.11,NE,56,3.0,7.0,86,0.00,,,0.00,0.0,meteohub,2013-02-01 12:40:00,
2013-02-01 04:45:00,48.7,45.0,30.11,ENE,65,4.0,7.0,87,0.00,,,0.00,0.0,meteohub,2013-02-01 12:45:00,
2013-02-01 04:50:00,48.7,45.0,30.11,NE,55,4.0,6.0,87,0.00,,,0.00,0.0,meteohub,2013-02-01 12:50:00,
2013-02-01 04:55:00,48.7,45.0,30.11,NE,55,4.0,6.0,87,0.00,,,0.00,0.0,meteohub,2013-02-01 12:55:00,
2013-02-01 05:00:00,48.6,45.1,30.11,NNE,32,3.0,7.0,88,0.00,,,0.00,0.0,meteohub,2013-02-01 13:00:00,
2013-02-01 05:05:00,48.6,45.1,30.11,NE,55,6.0,7.0,88,0.00,,,0.00,0.0,meteohub,2013-02-01 13:05:00,
2013-02-01 05:10:00,48.4,45.0,30.11,ENE,64,4.0,7.0,88,0.00,,,0.00,0.0,meteohub,2013-02-01 13:10:00,
2013-02-01 05:15:00,48.4,45.3,30.11,NE,40,4.0,7.0,89,0.00,,,0.00,0.0,meteohub,2013-02-01 13:15:00,
2013-02-01 05:20:00,48.2,45.1,30.11,ENE,64,7.0,7.0,89,0.00,,,0.00,0.0,meteohub,2013-02-01 13:20:00,
2013-02-01 05:25:00,48.0,45.0,30.11,ENE,61,3.0,7.0,89,0.00,,,0.00,0.0,meteohub,2013-02-01 13:25:00,
2013-02-01 05:30:00,47.8,44.8,30.11,ENE,69,4.0,7.0,89,0.00,,,0.00,0.0,meteohub,2013-02-01 13:30:00,
2013-02-01 05:35:00,47.8,44.8,30.11,NE,48,5.0,7.0,89,0.00,,,0.00,0.0,meteohub,2013-02-01 13:35:00,
2013-02-01 05:40:00,47.8,44.8,30.11,ENE,60,2.0,7.0,89,0.00,,,0.00,0.0,meteohub,2013-02-01 13:40:00,
2013-02-01 05:45:00,47.8,44.8,30.11,NE,36,3.0,7.0,89,0.00,,,0.00,0.0,meteohub,2013-02-01 13:45:00,
2013-02-01 05:50:00,47.7,44.2,30.11,NE,51,5.0,9.0,88,0.00,,,0.00,0.0,meteohub,2013-02-01 13:50:00,
2013-02-01 05:55:00,47.7,44.2,30.11,ENE,61,3.0,9.0,88,0.00,,,0.00,0.0,meteohub,2013-02-01 13:55:00,
2013-02-01 06:00:00,47.7,44.2,30.11,ENE,63,4.0,8.0,88,0.00,,,0.00,0.0,meteohub,2013-02-01 14:00:00,
2013-02-01 06:05:00,47.7,44.2,30.11,ENE,58,5.0,7.0,88,0.00,,,0.00,0.0,meteohub,2013-02-01 14:05:00,
2013-02-01 06:10:00,47.7,44.6,30.12,ENE,68,4.0,7.0,89,0.00,,,0.00,0.0,meteohub,2013-02-01 14:10:00,
2013-02-01 06:15:00,47.7,44.6,30.12,ENE,59,3.0,7.0,89,0.00,,,0.00,0.0,meteohub,2013-02-01 14:15:00,
2013-02-01 06:20:00,47.7,45.0,30.11,ENE,70,4.0,7.0,90,0.00,,,0.00,0.0,meteohub,2013-02-01 14:20:00,
2013-02-01 06:25:00,47.7,45.0,30.11,ENE,64,3.0,6.0,90,0.00,,,0.00,0.0,meteohub,2013-02-01 14:25:00,
2013-02-01 06:30:00,47.7,45.1,30.11,ENE,65,2.0,6.0,91,0.00,,,0.00,0.0,meteohub,2013-02-01 14:30:00,
2013-02-01 06:35:00,47.8,45.3,30.11,ENE,59,3.0,6.0,91,0.00,,,0.00,0.0,meteohub,2013-02-01 14:35:00,
2013-02-01 06:40:00,47.7,45.0,30.11,ENE,73,1.0,6.0,90,0.00,,,0.00,0.0,meteohub,2013-02-01 14:40:00,
2013-02-01 06:45:00,47.7,45.1,30.11,ENE,65,2.0,6.0,91,0.00,,,0.00,0.0,meteohub,2013-02-01 14:45:00,
2013-02-01 06:51:00,47.7,45.0,30.12,NE,49,2.0,6.0,90,0.00,,,0.00,0.0,meteohub,2013-02-01 14:51:00,
2013-02-01 06:56:00,47.5,44.8,30.12,ENE,63,3.0,6.0,90,0.00,,,0.00,0.0,meteohub,2013-02-01 14:56:00,
2013-02-01 07:01:00,47.5,44.8,30.12,NE,49,4.0,6.0,90,0.00,,,0.00,0.0,meteohub,2013-02-01 15:01:00,
2013-02-01 07:06:00,47.5,44.8,30.12,ENE,65,3.0,6.0,90,0.00,,,0.00,0.0,meteohub,2013-02-01 15:06:00,
2013-02-01 07:11:00,47.3,44.6,30.12,ENE,58,2.0,6.0,90,0.00,,,0.00,5.0,meteohub,2013-02-01 15:11:00,
2013-02-01 07:16:00,47.5,44.8,30.12,ENE,58,2.0,5.0,90,0.00,,,0.00,7.0,meteohub,2013-02-01 15:16:00,
2013-02-01 07:21:00,47.5,44.4,30.12,East,83,3.0,5.0,89,0.00,,,0.00,11.0,meteohub,2013-02-01 15:21:00,
2013-02-01 07:26:00,47.7,44.2,30.12,East,82,1.0,4.0,88,0.00,,,0.00,14.0,meteohub,2013-02-01 15:26:00,
2013-02-01 07:31:00,47.8,44.4,30.12,East,91,4.0,6.0,88,0.00,,,0.00,18.0,meteohub,2013-02-01 15:31:00,
2013-02-01 07:36:00,48.0,44.4,30.12,ENE,76,3.0,6.0,87,0.00,,,0.00,21.0,meteohub,2013-02-01 15:36:00,
2013-02-01 07:41:00,48.2,44.6,30.12,ENE,70,4.0,6.0,87,0.00,,,0.00,25.0,meteohub,2013-02-01 15:41:00,
2013-02-01 07:46:00,48.4,44.8,30.12,NE,56,5.0,6.0,87,0.00,,,0.00,28.0,meteohub,2013-02-01 15:46:00,
2013-02-01 07:51:00,48.6,44.8,30.12,ENE,74,4.0,6.0,87,0.00,,,0.00,47.0,meteohub,2013-02-01 15:51:00,
2013-02-01 07:56:00,48.7,44.8,30.13,East,94,5.0,7.0,86,0.00,,,0.00,74.0,meteohub,2013-02-01 15:56:00,
2013-02-01 08:01:00,48.9,45.0,30.12,NE,47,4.0,7.0,86,0.00,,,0.00,91.0,meteohub,2013-02-01 16:01:00,
2013-02-01 08:06:00,49.5,45.1,30.12,ESE,103,3.0,7.0,85,0.00,,,0.00,107.0,meteohub,2013-02-01 16:06:00,
2013-02-01 08:11:00,49.6,45.3,30.12,ENE,58,5.0,7.0,85,0.00,,,0.00,123.0,meteohub,2013-02-01 16:11:00,
2013-02-01 08:16:00,49.8,45.1,30.12,NE,55,3.0,9.0,84,0.00,,,0.00,139.0,meteohub,2013-02-01 16:16:00,
2013-02-01 08:21:00,50.2,45.5,30.12,ENE,74,3.0,9.0,84,0.00,,,0.00,151.0,meteohub,2013-02-01 16:21:00,
2013-02-01 08:26:00,50.5,45.5,30.12,ENE,74,3.0,9.0,83,0.00,,,0.00,165.0,meteohub,2013-02-01 16:26:00,
2013-02-01 08:31:00,50.9,45.9,30.12,ENE,76,1.0,6.0,83,0.00,,,0.00,181.0,meteohub,2013-02-01 16:31:00,
2013-02-01 08:36:00,51.1,46.0,30.12,East,83,3.0,6.0,83,0.00,,,0.00,199.0,meteohub,2013-02-01 16:36:00,
2013-02-01 08:41:00,51.1,46.0,30.12,East,94,4.0,6.0,83,0.00,,,0.00,218.0,meteohub,2013-02-01 16:41:00,
2013-02-01 08:46:00,51.6,46.0,30.12,East,92,3.0,6.0,81,0.00,,,0.00,236.0,meteohub,2013-02-01 16:46:00,
2013-02-01 08:51:00,52.2,46.2,30.12,East,101,5.0,6.0,80,0.00,,,0.00,251.0,meteohub,2013-02-01 16:51:00,
2013-02-01 08:56:00,52.2,46.2,30.12,East,96,4.0,9.0,80,0.00,,,0.00,264.0,meteohub,2013-02-01 16:56:00,
2013-02-01 09:01:00,52.7,46.4,30.12,ESE,120,2.0,9.0,79,0.00,,,0.00,279.0,meteohub,2013-02-01 17:01:00,
2013-02-01 09:06:00,53.4,46.8,30.12,SE,128,1.0,9.0,78,0.00,,,0.00,294.0,meteohub,2013-02-01 17:06:00,
2013-02-01 09:11:00,53.2,46.2,30.13,SSE,151,5.0,9.0,77,0.00,,,0.00,308.0,meteohub,2013-02-01 17:11:00,
2013-02-01 09:16:00,53.2,46.2,30.12,ESE,111,2.0,11.0,77,0.00,,,0.00,323.0,meteohub,2013-02-01 17:16:00,
2013-02-01 09:21:00,53.4,46.0,30.12,ENE,78,2.0,11.0,76,0.00,,,0.00,338.0,meteohub,2013-02-01 17:21:00,
2013-02-01 09:26:00,53.8,46.0,30.12,East,80,5.0,11.0,75,0.00,,,0.00,352.0,meteohub,2013-02-01 17:26:00,
2013-02-01 09:31:00,54.1,46.4,30.12,SE,140,2.0,9.0,75,0.00,,,0.00,364.0,meteohub,2013-02-01 17:31:00,
2013-02-01 09:36:00,54.3,46.2,30.12,ESE,117,7.0,9.0,74,0.00,,,0.00,385.0,meteohub,2013-02-01 17:36:00,
2013-02-01 09:41:00,54.9,46.4,30.12,SE,134,3.0,10.0,73,0.00,,,0.00,388.0,meteohub,2013-02-01 17:41:00,
2013-02-01 09:46:00,55.2,46.4,30.12,ESE,106,2.0,10.0,72,0.00,,,0.00,403.0,meteohub,2013-02-01 17:46:00,
2013-02-01 09:51:00,55.6,46.8,30.13,ESE,102,8.0,10.0,72,0.00,,,0.00,415.0,meteohub,2013-02-01 17:51:00,
2013-02-01 09:56:00,54.9,45.7,30.13,ESE,105,5.0,10.0,71,0.00,,,0.00,425.0,meteohub,2013-02-01 17:56:00,
2013-02-01 10:01:00,55.8,46.6,30.13,ENE,69,2.0,10.0,71,0.00,,,0.00,443.0,meteohub,2013-02-01 18:01:00,
2013-02-01 10:06:00,55.9,46.8,30.13,ESE,123,3.0,10.0,71,0.00,,,0.00,450.0,meteohub,2013-02-01 18:06:00,
2013-02-01 10:11:00,55.9,46.2,30.13,ESE,106,5.0,10.0,70,0.00,,,0.00,461.0,meteohub,2013-02-01 18:11:00,
2013-02-01 10:16:00,55.9,45.9,30.13,ESE,115,10.0,11.0,69,0.00,,,0.00,473.0,meteohub,2013-02-01 18:16:00,
2013-02-01 10:21:00,56.5,46.0,30.13,ESE,106,6.0,11.0,68,0.00,,,0.00,482.0,meteohub,2013-02-01 18:21:00,
2013-02-01 10:26:00,56.5,46.0,30.13,ESE,104,5.0,11.0,68,0.00,,,0.00,492.0,meteohub,2013-02-01 18:26:00,
2013-02-01 10:31:00,56.7,46.6,30.13,ESE,120,3.0,10.0,69,0.00,,,0.00,499.0,meteohub,2013-02-01 18:31:00,
2013-02-01 10:36:00,57.0,46.2,30.12,ESE,111,4.0,10.0,67,0.00,,,0.00,508.0,meteohub,2013-02-01 18:36:00,
2013-02-01 10:41:00,57.9,46.6,30.13,ESE,102,5.0,10.0,66,0.00,,,0.00,520.0,meteohub,2013-02-01 18:41:00,
2013-02-01 10:46:00,57.9,46.2,30.13,SE,131,6.0,9.0,65,0.00,,,0.00,527.0,meteohub,2013-02-01 18:46:00,
2013-02-01 10:51:00,57.7,46.4,30.13,SE,133,6.0,7.0,66,0.00,,,0.00,531.0,meteohub,2013-02-01 18:51:00,
2013-02-01 10:56:00,58.3,46.6,30.13,ESE,121,6.0,11.0,65,0.00,,,0.00,541.0,meteohub,2013-02-01 18:56:00,
2013-02-01 11:01:00,57.9,46.6,30.13,ESE,118,3.0,11.0,66,0.00,,,0.00,547.0,meteohub,2013-02-01 19:01:00,
2013-02-01 11:06:00,58.6,46.6,30.13,SE,138,3.0,7.0,64,0.00,,,0.00,554.0,meteohub,2013-02-01 19:06:00,
2013-02-01 11:11:00,59.4,46.8,30.12,East,88,4.0,7.0,63,0.00,,,0.00,563.0,meteohub,2013-02-01 19:11:00,
2013-02-01 11:16:00,58.8,46.6,30.12,East,101,7.0,9.0,64,0.00,,,0.00,568.0,meteohub,2013-02-01 19:16:00,
2013-02-01 11:21:00,59.5,47.3,30.12,ESE,113,6.0,10.0,64,0.00,,,0.00,575.0,meteohub,2013-02-01 19:21:00,
2013-02-01 11:26:00,59.7,46.8,30.12,SE,142,3.0,10.0,62,0.00,,,0.00,580.0,meteohub,2013-02-01 19:26:00,
2013-02-01 11:31:00,61.0,47.5,30.12,South,189,1.0,10.0,61,0.00,,,0.00,582.0,meteohub,2013-02-01 19:31:00,
2013-02-01 11:36:00,61.2,46.8,30.12,ESE,106,6.0,10.0,59,0.00,,,0.00,589.0,meteohub,2013-02-01 19:36:00,
2013-02-01 11:41:00,60.8,46.8,30.11,East,99,4.0,10.0,60,0.00,,,0.00,592.0,meteohub,2013-02-01 19:41:00,
2013-02-01 11:46:00,60.8,47.3,30.11,South,172,2.0,10.0,61,0.00,,,0.00,596.0,meteohub,2013-02-01 19:46:00,
2013-02-01 11:51:00,61.9,47.5,30.10,East,90,1.0,10.0,59,0.00,,,0.00,601.0,meteohub,2013-02-01 19:51:00,
2013-02-01 11:56:00,62.1,47.1,30.10,NE,53,7.0,10.0,58,0.00,,,0.00,599.0,meteohub,2013-02-01 19:56:00,
2013-02-01 12:01:00,61.5,46.6,30.09,ESE,117,3.0,12.0,58,0.00,,,0.00,603.0,meteohub,2013-02-01 20:01:00,
2013-02-01 12:06:00,62.2,46.8,30.09,ESE,111,5.0,12.0,57,0.00,,,0.00,605.0,meteohub,2013-02-01 20:06:00,
2013-02-01 12:11:00,61.9,46.4,30.09,ENE,65,2.0,12.0,57,0.00,,,0.00,603.0,meteohub,2013-02-01 20:11:00,
2013-02-01 12:16:00,62.2,46.8,30.09,ESE,117,2.0,11.0,57,0.00,,,0.00,605.0,meteohub,2013-02-01 20:16:00,
2013-02-01 12:21:00,62.8,46.9,30.09,East,98,2.0,11.0,56,0.00,,,0.00,605.0,meteohub,2013-02-01 20:21:00,
2013-02-01 12:26:00,63.0,47.5,30.08,SE,140,2.0,11.0,57,0.00,,,0.00,606.0,meteohub,2013-02-01 20:26:00,
2013-02-01 12:31:00,63.9,47.3,30.08,South,170,4.0,11.0,55,0.00,,,0.00,606.0,meteohub,2013-02-01 20:31:00,
2013-02-01 12:36:00,64.0,47.5,30.08,ENE,58,4.0,11.0,55,0.00,,,0.00,605.0,meteohub,2013-02-01 20:36:00,
2013-02-01 12:41:00,63.1,47.1,30.08,SE,131,3.0,10.0,56,0.00,,,0.00,603.0,meteohub,2013-02-01 20:41:00,
2013-02-01 12:46:00,63.7,47.3,30.07,ESE,115,3.0,10.0,55,0.00,,,0.00,605.0,meteohub,2013-02-01 20:46:00,
2013-02-01 12:51:00,63.9,47.3,30.07,ESE,119,3.0,7.0,55,0.00,,,0.00,596.0,meteohub,2013-02-01 20:51:00,
2013-02-01 12:56:00,63.9,47.3,30.07,East,92,0.0,10.0,55,0.00,,,0.00,599.0,meteohub,2013-02-01 20:56:00,
2013-02-01 13:00:00,64.4,46.9,30.07,East,99,2.0,10.0,53,0.00,,,0.00,592.0,meteohub,2013-02-01 21:00:00,
2013-02-01 13:02:00,64.6,47.5,30.07,ESE,105,4.0,10.0,54,0.00,,,0.00,594.0,meteohub,2013-02-01 21:02:00,
2013-02-01 13:07:00,64.2,46.8,30.07,SE,134,2.0,10.0,53,0.00,,,0.00,594.0,meteohub,2013-02-01 21:07:00,
2013-02-01 13:12:00,64.9,47.5,30.06,NNE,30,5.0,9.0,53,0.00,,,0.00,587.0,meteohub,2013-02-01 21:12:00,
2013-02-01 13:17:00,64.9,47.5,30.06,ESE,105,2.0,9.0,53,0.00,,,0.00,580.0,meteohub,2013-02-01 21:17:00,
2013-02-01 13:22:00,65.5,45.9,30.06,SE,141,2.0,7.0,49,0.00,,,0.00,580.0,meteohub,2013-02-01 21:22:00,
2013-02-01 13:27:00,65.8,47.7,30.06,SE,144,4.0,12.0,52,0.00,,,0.00,573.0,meteohub,2013-02-01 21:27:00,
2013-02-01 13:32:00,65.8,46.8,30.05,NE,55,4.0,12.0,50,0.00,,,0.00,571.0,meteohub,2013-02-01 21:32:00,
2013-02-01 13:37:00,65.8,46.2,30.05,ESE,111,3.0,12.0,49,0.00,,,0.00,566.0,meteohub,2013-02-01 21:37:00,
2013-02-01 13:42:00,66.0,46.4,30.05,ENE,69,5.0,9.0,49,0.00,,,0.00,555.0,meteohub,2013-02-01 21:42:00,
2013-02-01 13:47:00,66.4,47.1,30.06,East,96,6.0,10.0,50,0.00,,,0.00,554.0,meteohub,2013-02-01 21:47:00,
2013-02-01 13:52:00,66.4,46.6,30.05,ESE,102,1.0,10.0,49,0.00,,,0.00,545.0,meteohub,2013-02-01 21:52:00,
2013-02-01 13:57:00,66.9,46.6,30.05,SSE,162,1.0,10.0,48,0.00,,,0.00,538.0,meteohub,2013-02-01 21:57:00,
2013-02-01 14:02:00,66.9,46.0,30.05,ENE,63,0.0,9.0,47,0.00,,,0.00,529.0,meteohub,2013-02-01 22:02:00,
2013-02-01 14:07:00,67.3,46.9,30.05,ESE,108,2.0,7.0,48,0.00,,,0.00,520.0,meteohub,2013-02-01 22:07:00,
2013-02-01 14:12:00,66.4,45.5,30.05,ENE,62,1.0,7.0,47,0.00,,,0.00,512.0,meteohub,2013-02-01 22:12:00,
2013-02-01 14:17:00,66.6,46.8,30.05,NE,42,3.0,10.0,49,0.00,,,0.00,504.0,meteohub,2013-02-01 22:17:00,
2013-02-01 14:22:00,66.6,46.2,30.05,NE,46,2.0,10.0,48,0.00,,,0.00,497.0,meteohub,2013-02-01 22:22:00,
2013-02-01 14:26:00,66.4,45.5,30.06,NE,43,5.0,6.0,47,0.00,,,0.00,485.0,meteohub,2013-02-01 22:26:00,
2013-02-01 14:31:00,66.4,46.0,30.05,NE,41,2.0,6.0,48,0.00,,,0.00,476.0,meteohub,2013-02-01 22:31:00,
2013-02-01 14:36:00,65.8,45.0,30.05,NE,52,1.0,6.0,47,0.00,,,0.00,469.0,meteohub,2013-02-01 22:36:00,
2013-02-01 14:42:00,65.5,45.3,30.05,NE,46,3.0,7.0,48,0.00,,,0.00,413.0,meteohub,2013-02-01 22:42:00,
2013-02-01 14:47:00,65.5,45.3,30.05,NW,311,5.0,7.0,48,0.00,,,0.00,434.0,meteohub,2013-02-01 22:47:00,
2013-02-01 14:52:00,65.3,45.1,30.05,North,0,5.0,7.0,48,0.00,,,0.00,360.0,meteohub,2013-02-01 22:52:00,
2013-02-01 14:57:00,65.1,45.0,30.05,NNE,28,3.0,7.0,48,0.00,,,0.00,329.0,meteohub,2013-02-01 22:57:00,
2013-02-01 15:02:00,64.6,45.0,30.05,NE,49,1.0,7.0,49,0.00,,,0.00,350.0,meteohub,2013-02-01 23:02:00,
2013-02-01 15:07:00,64.8,45.7,30.05,NE,53,4.0,7.0,50,0.00,,,0.00,329.0,meteohub,2013-02-01 23:07:00,
2013-02-01 15:12:00,65.1,46.0,30.05,NE,43,0.0,6.0,50,0.00,,,0.00,346.0,meteohub,2013-02-01 23:12:00,
2013-02-01 15:17:00,64.8,45.1,30.05,North,0,2.0,7.0,49,0.00,,,0.00,332.0,meteohub,2013-02-01 23:17:00,
2013-02-01 15:22:00,64.4,44.8,30.05,NNE,30,1.0,9.0,49,0.00,,,0.00,294.0,meteohub,2013-02-01 23:22:00,
2013-02-01 15:27:00,64.4,44.8,30.05,NE,48,4.0,9.0,49,0.00,,,0.00,264.0,meteohub,2013-02-01 23:27:00,
2013-02-01 15:32:00,64.6,45.5,30.05,North,5,3.0,9.0,50,0.00,,,0.00,257.0,meteohub,2013-02-01 23:32:00,
2013-02-01 15:37:00,64.2,45.1,30.05,ENE,60,3.0,7.0,50,0.00,,,0.00,229.0,meteohub,2013-02-01 23:37:00,
2013-02-01 15:42:00,64.0,45.5,30.05,NNE,19,3.0,9.0,51,0.00,,,0.00,197.0,meteohub,2013-02-01 23:42:00,
2013-02-01 15:47:00,63.9,45.3,30.05,North,0,3.0,9.0,51,0.00,,,0.00,204.0,meteohub,2013-02-01 23:47:00,
2013-02-01 15:52:00,63.7,45.7,30.05,NW,325,5.0,9.0,52,0.00,,,0.00,188.0,meteohub,2013-02-01 23:52:00,
2013-02-01 15:57:00,63.5,45.5,30.04,NE,43,5.0,9.0,52,0.00,,,0.00,176.0,meteohub,2013-02-01 23:57:00,
2013-02-01 16:02:00,63.5,45.5,30.04,NNE,32,5.0,9.0,52,0.00,,,0.00,172.0,meteohub,2013-02-02 00:02:00,
2013-02-01 16:07:00,63.5,45.5,30.04,NNE,15,0.0,9.0,52,0.00,,,0.00,163.0,meteohub,2013-02-02 00:07:00,
2013-02-01 16:12:00,63.5,45.5,30.05,NNE,14,3.0,9.0,52,0.00,,,0.00,151.0,meteohub,2013-02-02 00:12:00,
2013-02-01 16:17:00,63.7,45.7,30.05,North,10,0.0,7.0,52,0.00,,,0.00,134.0,meteohub,2013-02-02 00:17:00,
2013-02-01 16:22:00,63.5,45.5,30.05,WNW,302,0.0,4.0,52,0.00,,,0.00,116.0,meteohub,2013-02-02 00:22:00,
2013-02-01 16:27:00,63.3,45.0,30.05,NNW,347,4.0,5.0,51,0.00,,,0.00,95.0,meteohub,2013-02-02 00:27:00,
2013-02-01 16:32:00,63.1,45.1,30.05,NNE,18,2.0,5.0,52,0.00,,,0.00,88.0,meteohub,2013-02-02 00:32:00,
2013-02-01 16:37:00,63.0,45.5,30.05,North,0,1.0,5.0,53,0.00,,,0.00,77.0,meteohub,2013-02-02 00:37:00,
2013-02-01 16:42:00,63.0,45.5,30.05,NNE,26,3.0,5.0,53,0.00,,,0.00,70.0,meteohub,2013-02-02 00:42:00,
2013-02-01 16:47:00,62.8,45.3,30.05,NNE,22,1.0,5.0,53,0.00,,,0.00,63.0,meteohub,2013-02-02 00:47:00,
2013-02-01 16:52:00,62.8,45.3,30.06,NNW,333,1.0,4.0,53,0.00,,,0.00,56.0,meteohub,2013-02-02 00:52:00,
2013-02-01 16:57:00,62.8,45.3,30.06,NNW,340,3.0,4.0,53,0.00,,,0.00,49.0,meteohub,2013-02-02 00:57:00,
2013-02-01 17:02:00,62.6,45.1,30.06,NW,315,1.0,5.0,53,0.00,,,0.00,42.0,meteohub,2013-02-02 01:02:00,
2013-02-01 17:07:00,62.8,46.4,30.06,WSW,238,2.0,5.0,55,0.00,,,0.00,35.0,meteohub,2013-02-02 01:07:00,
2013-02-01 17:12:00,61.9,46.4,30.07,WSW,242,2.0,7.0,57,0.00,,,0.00,28.0,meteohub,2013-02-02 01:12:00,
2013-02-01 17:17:00,61.2,45.9,30.07,WSW,257,6.0,7.0,57,0.00,,,0.00,19.0,meteohub,2013-02-02 01:17:00,
2013-02-01 17:22:00,60.1,46.2,30.07,WNW,286,5.0,7.0,60,0.00,,,0.00,14.0,meteohub,2013-02-02 01:22:00,
2013-02-01 17:27:00,58.8,46.2,30.07,West,278,6.0,7.0,63,0.00,,,0.00,11.0,meteohub,2013-02-02 01:27:00,
2013-02-01 17:32:00,58.3,46.2,30.08,West,278,1.0,10.0,64,0.00,,,0.00,7.0,meteohub,2013-02-02 01:32:00,
2013-02-01 17:37:00,57.7,45.7,30.08,WNW,284,7.0,12.0,64,0.00,,,0.00,5.0,meteohub,2013-02-02 01:37:00,
2013-02-01 17:42:00,57.4,45.3,30.08,WNW,293,7.0,12.0,64,0.00,,,0.00,7.0,meteohub,2013-02-02 01:42:00,
2013-02-01 17:47:00,57.4,45.3,30.08,West,270,4.0,12.0,64,0.00,,,0.00,5.0,meteohub,2013-02-02 01:47:00,
2013-02-01 17:52:00,57.4,45.3,30.08,WNW,285,6.0,11.0,64,0.00,,,0.00,0.0,meteohub,2013-02-02 01:52:00,
2013-02-01 17:57:00,57.4,45.0,30.08,West,280,7.0,11.0,63,0.00,,,0.00,0.0,meteohub,2013-02-02 01:57:00,
2013-02-01 18:26:00,57.2,44.8,30.09,WNW,296,1.0,7.0,63,0.00,,,0.00,0.0,meteohub,2013-02-02 02:26:00,
2013-02-01 18:31:00,57.2,44.8,30.09,NW,317,0.0,7.0,63,0.00,,,0.00,0.0,meteohub,2013-02-02 02:31:00,
2013-02-01 18:36:00,57.4,44.4,30.09,NNW,336,0.0,8.0,62,0.00,,,0.00,0.0,meteohub,2013-02-02 02:36:00,
2013-02-01 18:41:00,57.6,44.6,30.09,West,277,1.0,8.0,62,0.00,,,0.00,0.0,meteohub,2013-02-02 02:41:00,
2013-02-01 19:29:00,54.9,45.3,30.10,NNE,20,0.0,1.0,70,0.00,,,0.00,0.0,meteohub,2013-02-02 03:29:00,
2013-02-01 19:34:00,54.9,45.3,30.10,NNE,20,0.0,0.0,70,0.00,,,0.00,0.0,meteohub,2013-02-02 03:34:00,
2013-02-01 19:39:00,55.2,44.8,30.10,NNE,20,0.0,0.0,68,0.00,,,0.00,0.0,meteohub,2013-02-02 03:39:00,
2013-02-01 19:44:00,55.2,45.1,30.10,NNE,20,0.0,0.0,69,0.00,,,0.00,0.0,meteohub,2013-02-02 03:44:00,
2013-02-01 19:49:00,54.9,45.3,30.10,NNE,20,0.0,0.0,70,0.00,,,0.00,0.0,meteohub,2013-02-02 03:49:00,
2013-02-01 19:54:00,54.7,45.1,30.10,NNE,20,0.0,0.0,70,0.00,,,0.00,0.0,meteohub,2013-02-02 03:54:00,
2013-02-01 19:59:00,54.7,45.9,30.10,NNE,20,0.0,0.0,72,0.00,,,0.00,0.0,meteohub,2013-02-02 03:59:00,
2013-02-01 20:04:00,54.7,45.9,30.10,NNE,20,0.0,0.0,72,0.00,,,0.00,0.0,meteohub,2013-02-02 04:04:00,
2013-02-01 20:09:00,54.7,46.2,30.11,NNE,13,0.0,0.0,73,0.00,,,0.00,0.0,meteohub,2013-02-02 04:09:00,
2013-02-01 20:14:00,54.9,46.0,30.11,NNE,12,0.0,0.0,72,0.00,,,0.00,0.0,meteohub,2013-02-02 04:14:00,
2013-02-01 20:19:00,54.9,46.0,30.11,NNW,348,1.0,1.0,72,0.00,,,0.00,0.0,meteohub,2013-02-02 04:19:00,
2013-02-01 20:24:00,55.0,45.5,30.11,NNW,348,0.0,2.0,70,0.00,,,0.00,0.0,meteohub,2013-02-02 04:24:00,
2013-02-01 20:29:00,55.2,45.1,30.11,NNW,348,0.0,2.0,69,0.00,,,0.00,0.0,meteohub,2013-02-02 04:29:00,
2013-02-01 20:34:00,55.0,45.5,30.11,NNW,348,0.0,2.0,70,0.00,,,0.00,0.0,meteohub,2013-02-02 04:34:00,
2013-02-01 20:40:00,55.2,45.7,30.11,NNW,348,0.0,1.0,70,0.00,,,0.00,0.0,meteohub,2013-02-02 04:40:00,
2013-02-01 20:44:00,55.2,45.1,30.12,West,275,4.0,0.0,69,0.00,,,0.00,0.0,meteohub,2013-02-02 04:44:00,
2013-02-01 20:49:00,54.3,46.9,30.12,WNW,288,6.0,6.0,76,0.00,,,0.00,0.0,meteohub,2013-02-02 04:49:00,
2013-02-01 20:54:00,53.1,46.4,30.12,West,266,4.0,9.0,78,0.00,,,0.00,0.0,meteohub,2013-02-02 04:54:00,
2013-02-01 21:00:00,52.3,46.9,30.12,West,271,5.0,9.0,82,0.00,,,0.00,0.0,meteohub,2013-02-02 05:00:00,
2013-02-01 21:05:00,51.4,46.8,30.12,NW,306,6.0,9.0,84,0.00,,,0.00,0.0,meteohub,2013-02-02 05:05:00,
2013-02-01 21:10:00,51.6,46.6,30.12,West,277,4.0,9.0,83,0.00,,,0.00,0.0,meteohub,2013-02-02 05:10:00,
2013-02-01 21:15:00,51.4,46.8,30.12,WNW,289,2.0,7.0,84,0.00,,,0.00,0.0,meteohub,2013-02-02 05:15:00,
2013-02-01 21:20:00,51.6,46.2,30.12,NW,316,0.0,6.0,82,0.00,,,0.00,0.0,meteohub,2013-02-02 05:20:00,
2013-02-01 21:25:00,52.0,46.0,30.12,NNE,17,0.0,5.0,80,0.00,,,0.00,0.0,meteohub,2013-02-02 05:25:00,
2013-02-01 21:30:00,50.5,46.2,30.12,SSW,200,1.0,3.0,85,0.00,,,0.00,0.0,meteohub,2013-02-02 05:30:00,
2013-02-01 21:35:00,50.2,46.2,30.12,WSW,252,1.0,2.0,86,0.00,,,0.00,0.0,meteohub,2013-02-02 05:35:00,
2013-02-01 21:40:00,49.5,46.0,30.12,West,278,1.0,3.0,88,0.00,,,0.00,0.0,meteohub,2013-02-02 05:40:00,
2013-02-01 21:45:00,49.3,46.2,30.12,West,279,0.0,3.0,89,0.00,,,0.00,0.0,meteohub,2013-02-02 05:45:00,
2013-02-01 21:50:00,48.9,45.9,30.13,North,0,1.0,3.0,89,0.00,,,0.00,0.0,meteohub,2013-02-02 05:50:00,
2013-02-01 21:55:00,48.6,46.0,30.13,South,180,1.0,3.0,91,0.00,,,0.00,0.0,meteohub,2013-02-02 05:55:00,
2013-02-01 22:00:00,48.6,46.0,30.13,WSW,254,2.0,3.0,91,0.00,,,0.00,0.0,meteohub,2013-02-02 06:00:00,
2013-02-01 22:06:00,48.4,46.2,30.13,WSW,257,2.0,3.0,92,0.00,,,0.00,0.0,meteohub,2013-02-02 06:06:00,
2013-02-01 22:11:00,48.4,46.2,30.13,WSW,257,0.0,3.0,92,0.00,,,0.00,0.0,meteohub,2013-02-02 06:11:00,
2013-02-01 22:16:00,48.2,45.7,30.13,WSW,257,0.0,2.0,91,0.00,,,0.00,0.0,meteohub,2013-02-02 06:16:00,
2013-02-01 22:21:00,48.0,45.9,30.13,WSW,257,1.0,2.0,92,0.00,,,0.00,0.0,meteohub,2013-02-02 06:21:00,
2013-02-01 22:26:00,48.0,45.9,30.14,WSW,257,1.0,1.0,92,0.00,,,0.00,0.0,meteohub,2013-02-02 06:26:00,
2013-02-01 22:31:00,48.0,46.0,30.14,WSW,257,0.0,1.0,93,0.00,,,0.00,0.0,meteohub,2013-02-02 06:31:00,
2013-02-01 22:36:00,48.0,46.0,30.14,WSW,257,0.0,1.0,93,0.00,,,0.00,0.0,meteohub,2013-02-02 06:36:00,
2013-02-01 22:41:00,48.0,46.0,30.14,WSW,257,0.0,2.0,93,0.00,,,0.00,0.0,meteohub,2013-02-02 06:41:00,
2013-02-01 22:46:00,47.8,45.9,30.14,WSW,257,0.0,2.0,93,0.00,,,0.00,0.0,meteohub,2013-02-02 06:46:00,
2013-02-01 22:51:00,47.7,45.5,30.14,WSW,257,0.0,2.0,92,0.00,,,0.00,0.0,meteohub,2013-02-02 06:51:00,
2013-02-01 22:56:00,47.5,45.3,30.14,WSW,257,0.0,2.0,92,0.00,,,0.00,0.0,meteohub,2013-02-02 06:56:00,
2013-02-01 23:01:00,47.5,45.3,30.14,WSW,257,1.0,1.0,92,0.00,,,0.00,0.0,meteohub,2013-02-02 07:01:00,
2013-02-01 23:06:00,47.7,45.7,30.14,WSW,257,0.0,2.0,93,0.00,,,0.00,0.0,meteohub,2013-02-02 07:06:00,
2013-02-01 23:11:00,47.5,45.5,30.14,North,11,0.0,2.0,93,0.00,,,0.00,0.0,meteohub,2013-02-02 07:11:00,
2013-02-01 23:16:00,47.3,45.3,30.14,ESE,114,0.0,3.0,93,0.00,,,0.00,0.0,meteohub,2013-02-02 07:16:00,
2013-02-01 23:21:00,47.5,45.9,30.15,West,264,2.0,3.0,94,0.00,,,0.00,0.0,meteohub,2013-02-02 07:21:00,
2013-02-01 23:26:00,47.8,46.2,30.15,West,269,2.0,5.0,94,0.00,,,0.00,0.0,meteohub,2013-02-02 07:26:00,
2013-02-01 23:31:00,47.7,46.0,30.15,West,275,12.0,13.0,94,0.00,,,0.00,0.0,meteohub,2013-02-02 07:31:00,
2013-02-01 23:36:00,47.7,46.2,30.15,West,274,11.0,13.0,95,0.00,,,0.00,0.0,meteohub,2013-02-02 07:36:00,
2013-02-01 23:41:00,47.8,46.4,30.15,WNW,282,1.0,13.0,95,0.00,,,0.00,0.0,meteohub,2013-02-02 07:41:00,
2013-02-01 23:46:00,47.8,46.8,30.15,WNW,297,6.0,13.0,96,0.00,,,0.00,0.0,meteohub,2013-02-02 07:46:00,
2013-02-01 23:51:00,47.8,46.8,30.16,West,276,4.0,13.0,96,0.00,,,0.00,0.0,meteohub,2013-02-02 07:51:00,
2013-02-01 23:56:00,47.8,46.8,30.15,SW,236,4.0,11.0,96,0.00,,,0.00,0.0,meteohub,2013-02-02 07:56:00,